Regional Weather Roundup
Issued by NWS Sioux Falls, SD

Home | Current Version | Previous Version | Text Only | Print | Product List | Glossary On
Versions: 1 2 3 4 5 6 7 8 9 10 11 12 13 14 15 16 17 18 19 20 21 22 23 24 25 26 27 28 29 30 31 32 33 34 35 36 37 38 39 40 41 42 43 44 45 46 47 48 49 50
000
ASUS43 KFSD 282102
RWRFSD

WEATHER ROUNDUP FOR SE SOUTH DAKOTA/SW MINNESOTA/NW IOWA
NATIONAL WEATHER SERVICE SIOUX FALLS SD
400 PM CDT SUN MAY 28 2017

NOTE: "FAIR" INDICATES FEW OR NO CLOUDS BELOW 12,000 FEET WITH NO
SIGNIFICANT WEATHER AND OR OBSTRUCTIONS TO VISIBILITY.


SDZ038>040-050-052>070-282200-
SOUTHEAST SOUTH DAKOTA

CITY           SKY/WX    TMP DP  RH WIND       PRES   REMARKS
BROOKINGS      MOSUNNY   71  39  31 NW21G31   29.84F
CHAMBERLAIN    PTSUNNY   79  39  23 NW23      29.92F
HURON          MOSUNNY   75  37  25 NW24G32   29.85F
MADISON        FAIR      72  41  33 NW28G39   29.87F
MITCHELL       MOSUNNY   77  36  22 NW15G30   29.90S
SIOUX FALLS    PTSUNNY   73  43  33 NW22G31   29.87S
WINNER         MOCLDY    76  39  26 NW12G28   29.96F
$$

MNZ071-072-080-081-089-090-097-098-282200-
SOUTHWEST MINNESOTA

CITY           SKY/WX    TMP DP  RH WIND       PRES   REMARKS
FAIRMONT       CLOUDY    74  42  31 W21G36    29.80F
JACKSON        MOSUNNY   72  37  28 NW20G29   29.83S
LUVERNE        MOSUNNY   72  32  23 NW24G31   29.86F
MARSHALL       MOSUNNY   70  41  34 NW22      29.80S
MONTEVIDEO     MOSUNNY   73  41  31 N18G25    29.78F
PIPESTONE      MOSUNNY   73  27  17 NW22G30   29.86S
REDWOOD FALLS  PTSUNNY   70  42  36 W20G31    29.78S
TRACY          PTSUNNY   74  43  32 NW21G30   29.82S
WINDOM         MOSUNNY   73  36  25 W29G39    29.81F
WORTHINGTON    PTSUNNY   70  41  34 NW20G29   29.84F
$$

IAZ001>003-012>014-020>022-031-032-NEZ013-014-SDZ071-282200-
NORTHWEST IOWA

CITY           SKY/WX    TMP DP  RH WIND       PRES   REMARKS
CHEROKEE       PTSUNNY   73  42  32 NW13G24   29.86S
DENISON        SUNNY     77  41  27 NW18G29   29.89R
ESTHERVILLE    PTSUNNY   71  41  33 NW22G36   29.82F
LE MARS        MOSUNNY   75  43  31 NW20G29   29.89S
ORANGE CITY    SUNNY     73  45  35 NW25G31   29.88S
SHELDON        MOSUNNY   75  39  27 NW18G30   29.84F
SIOUX CITY     SUNNY     75  46  35 NW23G32   29.89R
SPENCER        MOSUNNY   74  42  31 NW18G32   29.84S
STORM LAKE       N/A     75  41  29 NW22G32   29.85S
$$

ABBREVIATIONS USED IN REMARKS
   TC - TEMPERATURE IN CELSIUS
  WCI - WIND CHILL INDEX
   HX - HEAT INDEX
  VSB - VISIBILITY




USA.gov is the U.S. government's official web portal to all federal, state and local government web resources and services.